Stündliche Wetter Kysle

Heute, 8 Mai, Samstag

Zeit Temperatur Niederschläge Wind Luftdruck Luftfeuchtigkeit
00:00 +12°C° 0 mm 5 m/S 745 mmHg 59%
01:00 +11°C° 0 mm 6 m/S 745 mmHg 59%
02:00 +11°C° 0 mm 6 m/S 744 mmHg 60%
03:00 +12°C° 0.1 mm 5 m/S 744 mmHg 65%
04:00 +12°C° 0.1 mm 5 m/S 744 mmHg 71%
05:00 +12°C° 0.1 mm 4 m/S 743 mmHg 76%
06:00 +12°C° 0.1 mm 5 m/S 743 mmHg 76%
07:00 +11°C° 0.1 mm 7 m/S 743 mmHg 76%
08:00 +11°C° 0 mm 8 m/S 743 mmHg 76%
09:00 +11°C° 0.7 mm 7 m/S 742 mmHg 81%
10:00 +11°C° 0.7 mm 7 m/S 742 mmHg 86%
11:00 +11°C° 0.7 mm 7 m/S 741 mmHg 91%
12:00 +11°C° 1.4 mm 7 m/S 741 mmHg 91%
13:00 +11°C° 1.4 mm 7 m/S 741 mmHg 91%
14:00 +11°C° 1.4 mm 7 m/S 741 mmHg 92%
15:00 +11°C° 0.1 mm 6 m/S 742 mmHg 90%
16:00 +11°C° 0.1 mm 6 m/S 742 mmHg 88%
17:00 +10°C° 0.1 mm 6 m/S 742 mmHg 87%
18:00 +9°C° 0 mm 7 m/S 743 mmHg 86%
19:00 +6°C° 0 mm 7 m/S 744 mmHg 86%
20:00 +5°C° 0 mm 7 m/S 744 mmHg 86%
21:00 +5°C° 0 mm 7 m/S 745 mmHg 85%
22:00 +4°C° 0 mm 7 m/S 745 mmHg 84%
23:00 +4°C° 0 mm 6 m/S 745 mmHg 83%

Morgen, 9 Mai, Sonntag

Zeit Temperatur Niederschläge Wind Luftdruck Luftfeuchtigkeit
00:00 +4°C° 0 mm 6 m/S 746 mmHg 83%
01:00 +4°C° 0 mm 6 m/S 746 mmHg 82%
02:00 +3°C° 0 mm 6 m/S 746 mmHg 81%
03:00 +3°C° 0 mm 5 m/S 747 mmHg 82%
04:00 +3°C° 0 mm 5 m/S 747 mmHg 82%
05:00 +3°C° 0 mm 5 m/S 748 mmHg 82%
06:00 +4°C° 0 mm 6 m/S 748 mmHg 76%
07:00 +5°C° 0 mm 6 m/S 749 mmHg 69%
08:00 +6°C° 0 mm 7 m/S 749 mmHg 63%
09:00 +8°C° 0 mm 7 m/S 749 mmHg 57%
10:00 +9°C° 0 mm 8 m/S 750 mmHg 51%
11:00 +10°C° 0 mm 8 m/S 750 mmHg 45%
12:00 +10°C° 0 mm 8 m/S 750 mmHg 44%
13:00 +11°C° 0 mm 8 m/S 751 mmHg 43%
14:00 +11°C° 0 mm 8 m/S 751 mmHg 41%
15:00 +11°C° 0 mm 7 m/S 751 mmHg 46%
16:00 +10°C° 0 mm 7 m/S 752 mmHg 50%
17:00 +10°C° 0 mm 6 m/S 752 mmHg 54%
18:00 +8°C° 0 mm 5 m/S 753 mmHg 59%
19:00 +7°C° 0 mm 4 m/S 753 mmHg 64%
20:00 +5°C° 0 mm 3 m/S 754 mmHg 70%
21:00 +5°C° 0 mm 3 m/S 754 mmHg 72%
22:00 +4°C° 0 mm 3 m/S 754 mmHg 75%
23:00 +4°C° 0 mm 3 m/S 755 mmHg 77%

übermorgen, 10 Mai, Montag

Zeit Temperatur Niederschläge Wind Luftdruck Luftfeuchtigkeit
00:00 +3°C° 0 mm 3 m/S 755 mmHg 78%
01:00 +3°C° 0 mm 3 m/S 755 mmHg 79%
02:00 +3°C° 0 mm 3 m/S 755 mmHg 80%
03:00 +3°C° 0 mm 3 m/S 755 mmHg 79%
04:00 +3°C° 0 mm 3 m/S 756 mmHg 78%
05:00 +3°C° 0 mm 4 m/S 756 mmHg 77%
06:00 +5°C° 0 mm 4 m/S 756 mmHg 70%
07:00 +7°C° 0 mm 5 m/S 756 mmHg 62%
08:00 +9°C° 0 mm 5 m/S 756 mmHg 55%
09:00 +10°C° 0 mm 6 m/S 755 mmHg 50%
10:00 +11°C° 0 mm 6 m/S 755 mmHg 46%
11:00 +12°C° 0 mm 7 m/S 755 mmHg 42%
12:00 +14°C° 0 mm 7 m/S 755 mmHg 42%
13:00 +14°C° 0 mm 7 m/S 754 mmHg 41%
14:00 +14°C° 0 mm 7 m/S 754 mmHg 41%
15:00 +14°C° 0 mm 7 m/S 754 mmHg 45%
16:00 +12°C° 0 mm 7 m/S 753 mmHg 50%
17:00 +12°C° 0 mm 7 m/S 753 mmHg 54%
18:00 +11°C° 0 mm 7 m/S 753 mmHg 55%
19:00 +10°C° 0 mm 7 m/S 753 mmHg 56%
20:00 +9°C° 0 mm 7 m/S 753 mmHg 58%
21:00 +9°C° 0 mm 7 m/S 752 mmHg 58%
22:00 +9°C° 0 mm 7 m/S 752 mmHg 59%
23:00 +9°C° 0 mm 8 m/S 751 mmHg 60%

11 Mai, Dienstag

Zeit Temperatur Niederschläge Wind Luftdruck Luftfeuchtigkeit
00:00 +9°C° 0 mm 8 m/S 751 mmHg 62%
01:00 +9°C° 0 mm 7 m/S 751 mmHg 63%
02:00 +9°C° 0 mm 7 m/S 750 mmHg 65%
03:00 +9°C° 0 mm 7 m/S 750 mmHg 66%
04:00 +8°C° 0 mm 7 m/S 750 mmHg 68%
05:00 +8°C° 0 mm 7 m/S 750 mmHg 70%
06:00 +8°C° 0.2 mm 7 m/S 750 mmHg 75%
07:00 +8°C° 0.2 mm 7 m/S 750 mmHg 81%
08:00 +8°C° 0.2 mm 7 m/S 750 mmHg 87%
09:00 +9°C° 0.1 mm 7 m/S 750 mmHg 85%
10:00 +10°C° 0.1 mm 7 m/S 750 mmHg 84%
11:00 +11°C° 0.1 mm 7 m/S 750 mmHg 83%
12:00 +11°C° 0.1 mm 7 m/S 750 mmHg 76%
13:00 +11°C° 0.1 mm 7 m/S 750 mmHg 70%
14:00 +11°C° 0.1 mm 7 m/S 751 mmHg 63%
15:00 +11°C° 0 mm 7 m/S 751 mmHg 65%
16:00 +11°C° 0 mm 7 m/S 751 mmHg 67%
17:00 +11°C° 0 mm 7 m/S 751 mmHg 69%
18:00 +10°C° 0 mm 7 m/S 750 mmHg 69%
19:00 +9°C° 0 mm 7 m/S 750 mmHg 70%
20:00 +9°C° 0 mm 7 m/S 750 mmHg 71%
21:00 +7°C° 0 mm 8 m/S 750 mmHg 73%
22:00 +7°C° 0 mm 8 m/S 750 mmHg 74%
23:00 +7°C° 0 mm 8 m/S 749 mmHg 76%

12 Mai, Mittwoch

Zeit Temperatur Niederschläge Wind Luftdruck Luftfeuchtigkeit
00:00 +7°C° 0 mm 8 m/S 749 mmHg 78%
01:00 +8°C° 0 mm 7 m/S 749 mmHg 79%
02:00 +6°C° 0 mm 7 m/S 749 mmHg 81%
03:00 +6°C° 0.2 mm 7 m/S 749 mmHg 83%
04:00 +6°C° 0.2 mm 7 m/S 748 mmHg 85%
05:00 +6°C° 0.2 mm 7 m/S 748 mmHg 87%
06:00 +6°C° 0.1 mm 7 m/S 748 mmHg 87%
07:00 +6°C° 0.1 mm 7 m/S 749 mmHg 87%
08:00 +8°C° 0.1 mm 7 m/S 749 mmHg 87%
09:00 +7°C° 0.3 mm 8 m/S 749 mmHg 86%
10:00 +7°C° 0.3 mm 8 m/S 749 mmHg 85%
11:00 +9°C° 0.3 mm 8 m/S 749 mmHg 84%
12:00 +9°C° 0.1 mm 7 m/S 749 mmHg 84%
13:00 +9°C° 0.1 mm 6 m/S 749 mmHg 85%
14:00 +9°C° 0.1 mm 6 m/S 749 mmHg 85%
15:00 +9°C° 0.1 mm 5 m/S 749 mmHg 87%
16:00 +10°C° 0.1 mm 4 m/S 749 mmHg 89%
17:00 +10°C° 0.1 mm 4 m/S 749 mmHg 91%
18:00 +10°C° 0.1 mm 4 m/S 748 mmHg 93%
19:00 +10°C° 0.1 mm 3 m/S 748 mmHg 95%
20:00 +9°C° 0.1 mm 3 m/S 748 mmHg 96%
21:00 +10°C° 0.2 mm 3 m/S 748 mmHg 96%
22:00 +10°C° 0.2 mm 3 m/S 747 mmHg 96%
23:00 +10°C° 0.2 mm 3 m/S 747 mmHg 96%

13 Mai, Donnerstag

Zeit Temperatur Niederschläge Wind Luftdruck Luftfeuchtigkeit
00:00 +9°C° 0 mm 3 m/S 747 mmHg 96%
01:00 +9°C° 0 mm 2 m/S 747 mmHg 95%
02:00 +9°C° 0 mm 2 m/S 747 mmHg 95%
03:00 +9°C° 0 mm 2 m/S 747 mmHg 95%
04:00 +9°C° 0 mm 2 m/S 747 mmHg 95%
05:00 +9°C° 0 mm 2 m/S 747 mmHg 95%
06:00 +11°C° 0 mm 3 m/S 747 mmHg 89%
07:00 +12°C° 0 mm 3 m/S 747 mmHg 84%
08:00 +14°C° 0 mm 4 m/S 747 mmHg 78%
09:00 +16°C° 0 mm 5 m/S 747 mmHg 72%
10:00 +19°C° 0 mm 5 m/S 747 mmHg 66%
11:00 +20°C° 0 mm 6 m/S 747 mmHg 60%
12:00 +21°C° 0 mm 6 m/S 747 mmHg 57%
13:00 +21°C° 0 mm 6 m/S 746 mmHg 55%
14:00 +22°C° 0 mm 6 m/S 746 mmHg 52%
15:00 +22°C° 0 mm 6 m/S 746 mmHg 56%
16:00 +21°C° 0 mm 5 m/S 746 mmHg 59%
17:00 +21°C° 0 mm 5 m/S 746 mmHg 63%
18:00 +19°C° 0 mm 4 m/S 746 mmHg 68%
19:00 +18°C° 0 mm 4 m/S 746 mmHg 72%
20:00 +17°C° 0 mm 4 m/S 746 mmHg 77%
21:00 +15°C° 0 mm 4 m/S 746 mmHg 80%
22:00 +15°C° 0 mm 4 m/S 746 mmHg 82%
23:00 +14°C° 0 mm 4 m/S 746 mmHg 85%
Mehr zeigen

Wir brauchen deine Erlaubnis

Meteoprog und unser Service Anbieter werden persönliche Daten aufbewahren, so wie Cookies, Geräte Bezeichnung oder ähnliche Technologien von deinem Gerät und Prozess, so wie Persönliche Daten Inhalte und Werbungen, genauso wie social Media und den Verkehr zu analysieren.

  • Aufbewahrung und/oder Zugang zu deiner Geräte Informationen.

    Cookies, Geräte Bezeichnung oder andere Informationen, können aufbewahrt oder Zugang zu deinem Gerät erhalten, für den Grund, der oben angegeben wird.

  • Personalisierte Werbung und Inhalte, Messungen, Einblick in das Publikum und Produkt Entwicklung.

    Werbungen und Inhalte können personalisiert werden, basierend auf ein Profil. Mehr Daten können besser personalisierte Werbungen und Inhalte hinzufügen. Werbung und Inhalte können gezeigt und gemessen werden. Einblicke über das Publikum, welche die Werbung gesehen haben und den Inhalt, können abgeleitet werden. So wie Daten können genutzt werden, um es zu verbessern oder die Benutzer Erfahrung zu verbessern das System und die Software.

Wenn du “Ich stimme zu” klickst, erlaubst du uns, die Cookies zu benutzen die Geräte Bezeichnung, den Web oder ähnliche Technologien zu benutzen. Deine Settings, können in deinem Gerät bei deinem Browser geändert werden.

Für den bestimmten Zweck, berechtigten Interessen beruhen darauf, mehr als auf den Inhalt. Du kannst mehr darüber in unseren Privaten und Cookie Politik lesen.